2022/12/25 00:00:00,41.8,-0.4
2022/12/25 00:10:00,41.7,-0.4
2022/12/25 00:20:00,41.6,-0.4
2022/12/25 00:30:00,41.5,-0.1
2022/12/25 00:40:00,41.4,-0.2
2022/12/25 00:50:00,41.3,-0.4
2022/12/25 01:00:00,41.1,-0.4
2022/12/25 01:10:00,40.9,-0.4
2022/12/25 01:20:00,40.7,-0.4
2022/12/25 01:30:00,40.6,-0.3
2022/12/25 01:40:00,40.5,-0.3
2022/12/25 01:50:00,40.4,-0.2
2022/12/25 02:00:00,40.3,-0.5
2022/12/25 02:10:00,40.2,-0.4
2022/12/25 02:20:00,40.0,-0.4
2022/12/25 02:30:00,39.8, 0.2
2022/12/25 02:40:00,39.7,-0.1
2022/12/25 02:50:00,39.6, 0.0
2022/12/25 03:00:00,39.5,-0.3
2022/12/25 03:10:00,39.4,-0.2
2022/12/25 03:20:00,39.4,-0.2
2022/12/25 03:30:00,39.3,-0.2
2022/12/25 03:40:00,39.3,-0.4
2022/12/25 03:50:00,39.1,-0.3
2022/12/25 04:00:00,38.9,-0.2
2022/12/25 04:10:00,38.9,-0.5
2022/12/25 04:20:00,38.7,-0.4
2022/12/25 04:30:00,38.5,-0.4
2022/12/25 04:40:00,38.4,-0.1
2022/12/25 04:50:00,38.2,-0.3
2022/12/25 05:00:00,38.1, 0.0
2022/12/25 05:10:00,38.0,-0.2
2022/12/25 05:20:00,38.0,-0.2
2022/12/25 05:30:00,37.9,-0.1
2022/12/25 05:40:00,37.8,-0.2
2022/12/25 05:50:00,37.7,-0.3
2022/12/25 06:00:00,37.6,-0.4
2022/12/25 06:10:00,37.5,-0.4
2022/12/25 06:20:00,37.4,-0.2
2022/12/25 06:30:00,37.3,-0.2
2022/12/25 06:40:00,37.2,-0.3
2022/12/25 06:50:00,37.2,-0.3
2022/12/25 07:00:00,37.2,-0.3
2022/12/25 07:10:00,37.1,-0.4
2022/12/25 07:20:00,37.1,-0.4
2022/12/25 07:30:00,37.0,-0.1
2022/12/25 07:40:00,36.9, 0.1
2022/12/25 07:50:00,36.8,-0.3
2022/12/25 08:00:00,36.8,-0.1
2022/12/25 08:10:00,36.7, 0.0
2022/12/25 08:20:00,36.5, 0.2
2022/12/25 08:30:00,36.2, 0.3
2022/12/25 08:40:00,36.0, 0.8
2022/12/25 08:50:00,36.0, 1.1
2022/12/25 09:00:00,36.0, 1.3
2022/12/25 09:10:00,36.2, 2.1
2022/12/25 09:20:00,36.1, 2.5
2022/12/25 09:30:00,36.0, 3.3
2022/12/25 09:40:00,35.8, 2.5
2022/12/25 09:50:00,35.6, 3.9
2022/12/25 10:00:00,35.3, 4.6
2022/12/25 10:10:00,35.3, 8.3
2022/12/25 10:20:00,35.3,10.9
2022/12/25 10:30:00,35.0,11.2
2022/12/25 10:40:00,34.7,10.1
2022/12/25 10:50:00,34.3, 8.6
2022/12/25 11:00:00,34.0, 8.5
2022/12/25 11:10:00,33.6, 5.7
2022/12/25 11:20:00,33.3, 5.0
2022/12/25 11:30:00,33.1, 8.4
2022/12/25 11:40:00,32.9, 9.1
2022/12/25 11:50:00,32.7, 7.5
2022/12/25 12:00:00,32.5, 6.3
2022/12/25 12:10:00,32.3, 7.7
2022/12/25 12:20:00,32.1, 8.6
2022/12/25 12:30:00,31.6, 8.9
2022/12/25 12:40:00,31.3, 6.3
2022/12/25 12:50:00,31.1, 9.9
2022/12/25 13:00:00,30.5, 9.7
2022/12/25 13:10:00,30.2, 7.4
2022/12/25 13:20:00,29.7, 6.2
2022/12/25 13:30:00,29.6, 5.1
2022/12/25 13:40:00,29.4, 4.1
2022/12/25 13:50:00,29.1, 6.7
2022/12/25 14:00:00,29.0, 5.3
2022/12/25 14:10:00,28.8, 4.7
2022/12/25 14:20:00,28.5, 4.1
2022/12/25 14:30:00,28.2, 3.2
2022/12/25 14:40:00,28.0, 3.1
2022/12/25 14:50:00,27.6, 2.3
2022/12/25 15:00:00,27.2, 2.0
2022/12/25 15:10:00,27.3, 2.0
2022/12/25 15:20:00,27.3, 1.8
2022/12/25 15:30:00,27.3, 1.6
2022/12/25 15:40:00,27.1, 1.3
2022/12/25 15:50:00,27.1, 1.3
2022/12/25 16:00:00,27.4, 0.9
2022/12/25 16:10:00,27.0, 1.4
2022/12/25 16:20:00,26.9, 1.9
2022/12/25 16:30:00,26.9, 1.6
2022/12/25 16:40:00,26.9, 1.0
2022/12/25 16:50:00,26.8, 1.0
2022/12/25 17:00:00,26.8, 0.6
2022/12/25 17:10:00,26.5, 0.7
2022/12/25 17:20:00,26.2, 0.8
2022/12/25 17:30:00,26.3, 0.8
2022/12/25 17:40:00,26.3, 0.9
2022/12/25 17:50:00,26.2, 1.4
2022/12/25 18:00:00,25.8, 1.9
2022/12/25 18:10:00,25.6, 1.5
2022/12/25 18:20:00,25.7, 1.1
2022/12/25 18:30:00,25.7, 1.2
2022/12/25 18:40:00,25.6, 0.9
2022/12/25 18:50:00,25.5, 0.7
2022/12/25 19:00:00,25.5, 0.4
2022/12/25 19:10:00,25.5, 0.4
2022/12/25 19:20:00,25.2, 0.4
2022/12/25 19:30:00,24.9, 0.4
2022/12/25 19:40:00,25.0, 0.5
2022/12/25 19:50:00,25.0, 0.5
2022/12/25 20:00:00,24.7, 0.3
2022/12/25 20:10:00,24.5, 0.3
2022/12/25 20:20:00,24.5, 0.5
2022/12/25 20:30:00,24.9, 0.3
2022/12/25 20:40:00,24.8, 0.5
2022/12/25 20:50:00,24.8, 0.4
2022/12/25 21:00:00,24.8, 0.0
2022/12/25 21:10:00,24.8, 0.2
2022/12/25 21:20:00,24.8, 0.1
2022/12/25 21:30:00,24.7, 0.2
2022/12/25 21:40:00,25.0, 0.0
2022/12/25 21:50:00,25.1, 0.0
2022/12/25 22:00:00,24.4, 0.1
2022/12/25 22:10:00,24.1,-0.2
2022/12/25 22:20:00,24.1, 0.0
2022/12/25 22:30:00,24.1,-0.1
2022/12/25 22:40:00,23.9, 0.1
2022/12/25 22:50:00,23.7, 0.0
2022/12/25 23:00:00,23.6, 0.2
2022/12/25 23:10:00,23.5, 0.1
2022/12/25 23:20:00,23.5, 0.0
2022/12/25 23:30:00,23.7, 0.0
2022/12/25 23:40:00,23.7,-0.1
2022/12/25 23:50:00,23.7,-0.4
